Flag for United Kingdom Weather past 2 weeks in Nottingham, England, United Kingdom

55 °F

Scattered clouds.

Feels Like: 51 °F
Forecast: 46 / 60 °F
Wind: 17 mph from West

Location: East Midlands

Current Time: Oct 7, 2015 at 2:36:33 PM

Latest Report: Oct 7, 2015 at 2:20 PM

Visibility: N/A

Pressure: 29.80 "Hg

Humidity: 82%

Dew point: 50 °F

Location of NottinghamLocation

Historic Weather in Nottingham — Graph


Nottingham temperature yesterday

Maximum temperature yesterday: 64 °F (at 11:20 AM)
Minimum temperature yesterday: 55 °F (at 9:20 PM)
Average temperature yesterday: 59 °F

Past Weeks' High & Low Weather Summary

High66 °F (Oct 5, 2:50 PM)100% (Sep 26, 6:50 AM)30.66 "Hg (Sep 26, 6:50 AM)
Low41 °F (Sep 26, 6:50 AM)45% (Sep 24, 3:50 PM)29.39 "Hg (Oct 6, 1:50 PM)
Average54 °F83%30.13 "Hg
* Reported Sep 22 1:20 PM — Oct 7 1:20 PM, Nottingham, Weather by CustomWeather, © 2015

Note: Actual official high and low records may vary slightly from our data, if they occured in-between our weather recording intervals... More about our weather records


Nottingham weather history for previous 24 hours

Time TempWeatherWind HumidityBarometerVisibility
1:20 PM
Wed, Oct 7
55 °FScattered clouds.20 mph82%29.80 "HgN/A
12:50 PM55 °FScattered clouds.18 mph82%29.77 "Hg6 mi
12:20 PM54 °FDrizzle. Broken clouds.22 mph94%29.77 "Hg6 mi
11:50 AM54 °FPartly sunny.20 mph94%29.74 "Hg6 mi
11:20 AM55 °FPartly sunny.17 mph94%29.74 "Hg4 mi
10:50 AM54 °FDrizzle. Partly sunny.18 mph100%29.71 "Hg4 mi
10:20 AM54 °FDrizzle. Partly sunny.17 mph100%29.71 "HgN/A
9:50 AM55 °FDrizzle. Partly sunny.20 mph94%29.71 "HgN/A
9:20 AM55 °FDrizzle. Partly sunny.18 mph94%29.68 "HgN/A
8:50 AM55 °FDrizzle. Broken clouds.17 mph94%29.65 "Hg4 mi
8:20 AM55 °FDrizzle. Broken clouds.16 mph100%29.65 "Hg3 mi
7:50 AM57 °FPartly cloudy.15 mph94%29.62 "Hg4 mi
7:20 AM57 °FPassing clouds.13 mph94%29.62 "Hg4 mi
6:50 AM57 °FPassing clouds.12 mph94%29.59 "Hg4 mi
6:20 AM57 °FPassing clouds.9 mph94%29.59 "Hg4 mi
5:50 AM55 °FPassing clouds.9 mph100%29.59 "Hg5 mi
5:20 AM55 °FPartly cloudy.8 mph100%29.59 "HgN/A
4:50 AM55 °FPassing clouds.7 mph94%29.56 "HgN/A
4:20 AM54 °FPassing clouds.7 mph100%29.56 "HgN/A
3:50 AM55 °FPassing clouds.6 mph94%29.56 "HgN/A
3:20 AM55 °FPartly cloudy.7 mph100%29.53 "HgN/A
2:50 AM55 °FPartly cloudy.7 mph100%29.53 "Hg6 mi
2:20 AM55 °FPassing clouds.8 mph94%29.53 "Hg4 mi
1:50 AM54 °FPartly cloudy.6 mph100%29.53 "Hg4 mi
1:20 AM55 °FPartly cloudy.7 mph100%29.50 "Hg4 mi
12:50 AM55 °FFog.3 mph100%29.50 "Hg1 mi
12:20 AM55 °FFog.3 mph100%29.50 "Hg1 mi
11:50 PM
Tue, Oct 6
55 °FFog.No wind100%29.50 "Hg2 mi
11:20 PM55 °FFog.No wind100%29.47 "Hg4 mi
10:20 PM55 °FFog.3 mph100%29.47 "Hg0 mi
9:50 PM55 °FFog.2 mph100%29.45 "Hg2 mi
9:20 PM55 °FFog.3 mph100%29.45 "Hg2 mi
8:50 PM57 °FPassing clouds.3 mph100%29.45 "Hg4 mi
8:20 PM57 °FRain. Passing clouds.5 mph100%29.45 "Hg6 mi
7:50 PM57 °FRain. Partly cloudy.6 mph100%29.42 "Hg4 mi
7:20 PM57 °FLight rain. Scattered clouds.5 mph100%29.42 "HgN/A
6:50 PM57 °FSprinkles. Scattered clouds.6 mph100%29.42 "HgN/A
6:20 PM59 °FSprinkles. Scattered clouds.6 mph94%29.42 "HgN/A
5:50 PM61 °FPassing clouds.8 mph88%29.39 "HgN/A
5:20 PM61 °FPassing clouds.7 mph88%29.39 "HgN/A
4:50 PM61 °FScattered clouds.7 mph88%29.39 "HgN/A
4:20 PM59 °FPartly sunny.8 mph88%29.39 "HgN/A
3:50 PM61 °FRain. Partly sunny.8 mph88%29.39 "Hg4 mi
3:20 PM61 °FScattered showers. Broken clouds.7 mph94%29.39 "HgN/A
2:50 PM61 °FBroken clouds.9 mph94%29.39 "HgN/A
2:20 PM61 °FBroken clouds.10 mph94%29.39 "HgN/A
Weather by CustomWeather, © 2015

See weather overviewHow to use our weather pages